This demonstration page uses our WeatherBlox Daily Observations layout. Learn more.

Left ArrowRight Arrow

44.8408, -93.29828

Hourly Observations for December 8, 2022

Temp ( °F °C ) Dew Point ( °F °C ) Humidity (%) Winds ( mph kmh ) Pressure ( in mb ) Visibility ( mi km ) Precip ( " mm )
12:53 am 00:53 Clear 7 -13.9 2 -16.7 79 79 NNW 5 7 30.50 1033 10 16 0.00 0.00
1:53 am 01:53 Clear 9 -12.8 4 -15.6 79 79 Calm 30.48 1032 10 16 0.00 0.00
2:53 am 02:53 Clear 9 -12.8 4 -15.6 79 79 SE 3 6 30.47 1032 10 16 0.00 0.00
3:53 am 03:53 Clear 9 -12.8 4 -15.6 79 79 ESE 3 6 30.45 1031 10 16 0.00 0.00
4:53 am 04:53 Clear 8 -13.3 3 -16.1 79 79 ESE 3 6 30.44 1031 10 16 0.00 0.00
5:53 am 05:53 Clear 10 -12.2 5 -15 80 80 E 3 6 30.44 1031 10 16 0.00 0.00
6:53 am 06:53 Clear 9 -12.8 4 -15.6 79 79 SE 6 9 30.44 1031 10 16 0.00 0.00
7:53 am 07:53 Sunny 9 -12.8 5 -15 83 83 SE 5 7 30.43 1031 9 14 0.00 0.00
8:53 am 08:53 Sunny 10 -12.2 6 -14.4 84 84 SE 3 6 30.43 1030 9 14 0.00 0.00
9:53 am 09:53 Sunny 14 -10 8 -13.3 77 77 ESE 5 7 30.42 1030 10 16 0.00 0.00
10:53 am 10:53 Sunny 19 -7.2 12 -11.1 74 74 E 3 6 30.41 1030 9 14 0.00 0.00
11:53 am 11:53 Mostly Sunny 23 -5 16 -8.9 74 74 ESE 6 9 30.38 1029 10 16 0.00 0.00
12:53 pm 12:53 Mostly Sunny 26 -3.3 17 -8.3 68 68 SE 7 11 30.36 1028 9 14 0.00 0.00
1:53 pm 13:53 Mostly Cloudy 27 -2.8 18 -7.8 68 68 ESE 7 11 30.34 1027 9 14 0.00 0.00
2:53 pm 14:53 Mostly Cloudy 28 -2.2 20 -6.7 71 71 SSE 3 6 30.34 1027 8 13 0.00 0.00
3:53 pm 15:53 Mostly Cloudy 28 -2.2 20 -6.7 71 71 E 6 9 30.33 1027 8 13 0.00 0.00
4:53 pm 16:53 Mostly Cloudy 28 -2.2 20 -6.7 71 71 Calm 30.33 1027 9 14 0.00 0.00
5:53 pm 17:53 Partly Cloudy 27 -2.8 20 -6.7 74 74 ENE 7 11 30.32 1027 9 14 0.00 0.00
6:53 pm 18:53 Mostly Cloudy 28 -2.2 21 -6.1 75 75 E 7 11 30.31 1026 8 13 0.00 0.00
7:53 pm 19:53 Partly Cloudy 27 -2.8 21 -6.1 78 78 ESE 8 13 30.30 1026 8 13 0.00 0.00
8:53 pm 20:53 Mostly Cloudy 27 -2.8 21 -6.1 78 78 SE 7 11 30.31 1027 8 13 0.00 0.00
9:19 pm 21:19 Mostly Cloudy 26 -3.3 21 -6.1 81 81 SE 6 9 30.31 1026 8 13 0.00 0.00
9:30 pm 21:30 Mostly Cloudy 27 -2.8 22 -5.6 81 81 SE 5 7 30.32 1027 7 11 0.00 0.00
9:53 pm 21:53 Cloudy with Haze 28 -2.2 23 -5 81 81 ESE 6 9 30.29 1026 6 10 0.00 0.00
10:53 pm 22:53 Cloudy with Mist and Fog 28 -2.2 24 -4.4 85 85 E 6 9 30.28 1026 6 10 0.00 0.00
11:53 pm 23:53 Cloudy with Mist and Fog 28 -2.2 24 -4.4 85 85 ENE 5 7 30.29 1026 5 8 0.00 0.00

Powered by AerisWeather